TimeMST,TemperatureF,Dew PointF,Humidity,Sea Level PressureIn,VisibilityMPH,Wind Direction,Wind SpeedMPH,Gust SpeedMPH,PrecipitationIn,Events,Conditions,WindDirDegrees,DateUTC
12:56 AM,21.0,14.0,74,30.06,10.0,West,13.8,-,N/A,,Clear,260,2013-01-09 07:56:00
1:56 AM,18.0,12.0,78,30.09,10.0,WSW,10.4,-,N/A,,Clear,250,2013-01-09 08:56:00
2:56 AM,19.0,12.0,74,30.11,10.0,WSW,10.4,-,N/A,,Clear,240,2013-01-09 09:56:00
3:56 AM,19.0,12.0,74,30.12,10.0,SSW,10.4,-,N/A,,Mostly Cloudy,210,2013-01-09 10:56:00
4:56 AM,24.1,16.0,71,30.09,10.0,SSW,5.8,-,N/A,,Overcast,200,2013-01-09 11:56:00
5:56 AM,21.0,14.0,74,30.08,10.0,South,10.4,-,N/A,,Scattered Clouds,190,2013-01-09 12:56:00
6:56 AM,19.0,12.0,74,30.08,10.0,South,10.4,-,N/A,,Clear,180,2013-01-09 13:56:00
7:56 AM,19.9,14.0,78,30.07,10.0,South,15.0,-,N/A,,Clear,170,2013-01-09 14:56:00
8:56 AM,26.1,16.0,66,30.05,10.0,South,16.1,-,N/A,,Clear,190,2013-01-09 15:56:00
9:56 AM,30.0,19.0,64,30.05,10.0,South,18.4,-,N/A,,Clear,180,2013-01-09 16:56:00
10:56 AM,30.9,21.9,69,30.04,10.0,South,12.7,-,N/A,,Clear,170,2013-01-09 17:56:00
11:56 AM,35.1,25.0,67,30.01,10.0,South,15.0,-,N/A,,Clear,180,2013-01-09 18:56:00
12:56 PM,36.0,27.0,70,30.01,10.0,South,17.3,-,N/A,,Clear,190,2013-01-09 19:56:00
1:56 PM,37.0,28.0,70,30.00,10.0,South,16.1,-,N/A,,Clear,190,2013-01-09 20:56:00
2:56 PM,37.0,28.9,73,30.00,10.0,South,10.4,-,N/A,,Clear,180,2013-01-09 21:56:00
3:56 PM,36.0,28.9,76,29.99,10.0,South,10.4,-,N/A,,Clear,180,2013-01-09 22:56:00
4:56 PM,37.0,28.0,70,29.96,10.0,South,17.3,-,N/A,,Clear,190,2013-01-09 23:56:00
5:56 PM,36.0,28.0,73,29.94,10.0,South,11.5,-,N/A,,Clear,170,2013-01-10 00:56:00
6:56 PM,34.0,27.0,75,29.93,10.0,SSW,11.5,-,N/A,,Clear,200,2013-01-10 01:56:00
7:56 PM,30.9,24.1,76,29.89,10.0,SSW,9.2,-,N/A,,Clear,200,2013-01-10 02:56:00
9:56 PM,32.0,26.1,79,29.81,10.0,South,9.2,-,N/A,,Clear,180,2013-01-10 04:56:00
10:56 PM,32.0,26.1,79,29.79,10.0,SSE,10.4,-,N/A,,Clear,160,2013-01-10 05:56:00
11:56 PM,33.1,26.1,75,29.76,10.0,South,13.8,-,N/A,,Clear,180,2013-01-10 06:56:00